Location: Schommer Observatory
(40.5200°N, 74.4500°W)
Time: 07:23:14
(UTC-04:00)

Tiangong 2 - Pass Details

Date: 07 October 2017
Orbit: 388 x 391 km, 42.8° (Epoch: 24 October)

Event Time Altitude Azimuth Distance (km) Brightness Sun altitude
Exits shadow 05:12:52 - 163° (SSE) 1,481 4.1 -21.2°
Reaches altitude 10° 05:13:27 10° 153° (SSE) 1,415 4.1 -21.1°
Maximum altitude 05:14:04 10° 142° (SE) 1,392 4.2 -21.0°
Drops below altitude 10° 05:14:41 10° 131° (SE) 1,417 4.4 -20.9°
Sets 05:18:19 0° 88° (E) 2,278 6.5 -20.2°
